Middlebury State AP, Middlebu, VT

7:14 PM EST on December 07, 2019 (GMT -0500)
Middlebury State AP, Middlebu

Weather History for K6B0 - September, 2019

Change the Weather History Date:

Monday, September 30, 2019

  Actual Average (WUND) Record (WUND)
Temperature  
Mean Temperature 50 °F -  
Max Temperature 61 °F - - (-1)
Min Temperature 38 °F - - (-1)
Degree Days  
Heating Degree Days 16    
Moisture  
Dew Point 44 °F    
Average Humidity 70    
Maximum Humidity 98    
Minimum Humidity 47    
Precipitation  
Precipitation 0.00 in - - ()
Sea Level Pressure  
Sea Level Pressure 30.26 in    
Wind  
Wind Speed 1 mph ()    
Max Wind Speed 10 mph    
Max Gust Speed 16 mph    
Visibility 10.0 miles    
Events      
Averages and records for this station are not official NWS values.
T = Trace of Precipitation, MM = Missing Value Source: Averaged Metar Reports

Daily Weather History Graph

Daily Weather History Graph

Search for Another Location

Airport or City:

Astronomy

Sep. 30, 2019 Rise Set
Actual Time 6:48 AM EDT 6:35 PM EDT
Civil Twilight 6:19 AM EDT 7:04 PM EDT
Nautical Twilight 5:46 AM EDT 7:37 PM EDT
Astronomical Twilight 5:12 AM EDT 8:11 PM EDT
Moon 8:52 AM EDT (9/30) 8:05 PM EDT (9/30)
Length of Visible Light 12h 44m
Length of Day
11h 46m
Waxing Crescent, 5% of the Moon is Illuminated
Sep 30
Waxing Crescent
Oct 5
First Quarter
Oct 13
Full
Oct 21
Last Quarter
Oct 27
New

Hourly Weather History & Observations

Time (EDT) Temp. Dew Point Humidity Pressure Visibility Wind Dir Wind Speed Gust Speed Precip Events Conditions
6:41 AM 38.3 °F 37.8 °F 98% 30.38 in 10.0 mi Calm Calm - N/A   Clear
6:59 AM 39.0 °F 38.3 °F 97% 30.38 in 10.0 mi Calm Calm - N/A   Clear
7:16 AM 39.4 °F 38.8 °F 98% 30.38 in 10.0 mi Calm Calm - N/A   Clear
7:36 AM 38.8 °F 38.1 °F 97% 30.37 in 10.0 mi Calm Calm - N/A   Clear
7:55 AM 38.8 °F 38.1 °F 97% 30.38 in 10.0 mi Calm Calm - N/A   Clear
7:56 AM 39.0 °F 38.3 °F 97% 30.38 in 10.0 mi Calm Calm - N/A   Clear
8:15 AM 41.4 °F 40.1 °F 95% 30.38 in 10.0 mi Calm Calm - N/A   Clear
8:37 AM 43.7 °F 40.8 °F 90% 30.39 in 10.0 mi Calm Calm - N/A   Clear
8:55 AM 45.7 °F 42.3 °F 88% 30.38 in 10.0 mi Calm Calm - N/A   Clear
9:15 AM 48.9 °F 41.7 °F 76% 30.39 in 10.0 mi Calm Calm - N/A   Clear
9:16 AM 49.1 °F 41.7 °F 76% 30.39 in 10.0 mi Calm Calm - N/A   Clear
9:35 AM 48.9 °F 40.6 °F 73% 30.39 in 10.0 mi Calm Calm - N/A   Clear
9:36 AM 49.1 °F 40.8 °F 73% 30.39 in 10.0 mi Calm Calm - N/A   Clear
9:59 AM 51.3 °F 42.8 °F 73% 30.38 in 10.0 mi Calm Calm - N/A   Clear
10:17 AM 52.3 °F 40.6 °F 64% 30.38 in 10.0 mi SW 4.6 mph - N/A   Clear
10:36 AM 52.7 °F 39.9 °F 62% 30.37 in 10.0 mi South 3.5 mph - N/A   Clear
10:55 AM 52.9 °F 40.3 °F 62% 30.38 in 10.0 mi Calm Calm - N/A   Clear
10:56 AM 52.7 °F 39.7 °F 61% 30.38 in 10.0 mi Calm Calm - N/A   Clear
11:15 AM 52.9 °F 39.7 °F 61% 30.37 in 10.0 mi Calm Calm - N/A   Clear
11:37 AM 53.6 °F 40.5 °F 61% 30.36 in 10.0 mi Calm Calm - N/A   Clear
11:56 AM 54.5 °F 40.3 °F 59% 30.34 in 10.0 mi Calm Calm - N/A   Clear
12:15 PM 56.7 °F 40.8 °F 55% 30.33 in 10.0 mi Calm Calm - N/A   Clear
12:16 PM 56.8 °F 41.0 °F 55% 30.33 in 10.0 mi Calm Calm - N/A   Clear
12:35 PM 58.1 °F 40.3 °F 52% 30.33 in 10.0 mi Calm Calm - N/A   Clear
12:36 PM 58.1 °F 40.5 °F 52% 30.33 in 10.0 mi SSW 3.5 mph - N/A   Clear
12:58 PM 58.5 °F 40.3 °F 51% 30.32 in 10.0 mi SSW 5.8 mph - N/A   Clear
1:15 PM 59.7 °F 40.5 °F 49% 30.31 in 10.0 mi Calm Calm - N/A   Clear
1:35 PM 60.6 °F 40.6 °F 48% 30.30 in 10.0 mi Calm Calm - N/A   Scattered Clouds
1:36 PM 60.8 °F 40.5 °F 47% 30.30 in 10.0 mi SSE 4.6 mph - N/A   Scattered Clouds
1:55 PM 60.3 °F 40.8 °F 49% 30.29 in 10.0 mi South 6.9 mph - N/A   Mostly Cloudy
1:56 PM 60.4 °F 41.2 °F 49% 30.29 in 10.0 mi South 6.9 mph - N/A   Mostly Cloudy
2:19 PM 59.9 °F 41.4 °F 50% 30.27 in 10.0 mi SSE 3.5 mph - N/A   Scattered Clouds
2:36 PM 60.1 °F 41.9 °F 51% 30.27 in 10.0 mi South 3.5 mph - N/A   Scattered Clouds
2:56 PM 60.3 °F 42.3 °F 51% 30.25 in 10.0 mi SSE 4.6 mph - N/A   Mostly Cloudy
3:15 PM 60.6 °F 42.6 °F 52% 30.26 in 10.0 mi South 6.9 mph - N/A   Scattered Clouds
3:35 PM 59.9 °F 42.8 °F 53% 30.25 in 10.0 mi South 8.1 mph - N/A   Mostly Cloudy
3:57 PM 59.9 °F 44.6 °F 57% 30.24 in 10.0 mi SSE 3.5 mph - N/A   Overcast
4:15 PM 59.9 °F 44.4 °F 57% 30.23 in 10.0 mi Calm Calm - N/A   Overcast
4:35 PM 61.0 °F 45.1 °F 56% 30.22 in 10.0 mi Calm Calm - N/A   Overcast
4:36 PM 61.0 °F 45.0 °F 56% 30.22 in 10.0 mi Calm Calm - N/A   Overcast
4:55 PM 59.0 °F 48.0 °F 67% 30.22 in 10.0 mi Calm Calm - N/A   Mostly Cloudy
4:56 PM 59.0 °F 48.4 °F 68% 30.22 in 10.0 mi Calm Calm - N/A   Mostly Cloudy
5:19 PM 57.6 °F 49.1 °F 73% 30.22 in 10.0 mi ESE 3.5 mph - N/A   Overcast
5:37 PM 57.2 °F 49.3 °F 75% 30.21 in 10.0 mi Calm Calm - N/A   Overcast
5:56 PM 56.1 °F 50.4 °F 81% 30.21 in 10.0 mi Calm Calm - N/A   Overcast
6:15 PM 55.6 °F 50.7 °F 84% 30.21 in 10.0 mi Calm Calm - N/A   Overcast
6:16 PM 55.6 °F 50.7 °F 84% 30.21 in 10.0 mi Calm Calm - N/A   Overcast
6:35 PM 55.4 °F 48.9 °F 79% 30.20 in 10.0 mi Calm Calm - N/A   Overcast
6:39 PM 55.0 °F 49.3 °F 81% 30.20 in 10.0 mi Calm Calm - N/A   Overcast
6:57 PM 54.5 °F 48.9 °F 81% 30.19 in 10.0 mi Calm Calm - N/A   Overcast
7:15 PM 54.5 °F 49.8 °F 84% 30.19 in 10.0 mi Calm Calm - N/A   Overcast
7:35 PM 54.5 °F 49.3 °F 83% 30.19 in 10.0 mi Calm Calm - N/A   Overcast
7:36 PM 54.5 °F 49.6 °F 84% 30.19 in 10.0 mi Calm Calm - N/A   Overcast
7:55 PM 54.9 °F 47.1 °F 75% 30.18 in 10.0 mi Calm Calm - N/A   Overcast
7:56 PM 55.0 °F 46.9 °F 74% 30.18 in 10.0 mi Calm Calm - N/A   Overcast
8:19 PM 56.3 °F 46.4 °F 69% 30.18 in 10.0 mi South 3.5 mph - N/A   Overcast
8:37 PM 58.1 °F 45.9 °F 64% 30.17 in 10.0 mi SSE 4.6 mph - N/A   Overcast
8:55 PM 57.4 °F 47.7 °F 70% 30.17 in 10.0 mi SE 4.6 mph - N/A   Overcast
8:56 PM 57.4 °F 47.5 °F 70% 30.17 in 10.0 mi SE 4.6 mph - N/A   Overcast
9:15 PM 56.3 °F 48.6 °F 75% 30.17 in 10.0 mi Calm Calm - N/A   Overcast
9:35 PM 57.2 °F 47.7 °F 70% 30.16 in 10.0 mi SSE 3.5 mph - N/A   Overcast
9:39 PM 57.4 °F 47.3 °F 69% 30.16 in 10.0 mi SSE 4.6 mph - N/A   Overcast
9:57 PM 57.0 °F 48.6 °F 73% 30.16 in 10.0 mi SE 4.6 mph - N/A   Overcast
10:15 PM 57.6 °F 48.7 °F 72% 30.16 in 10.0 mi SSE 3.5 mph - N/A   Overcast
10:35 PM 58.6 °F 48.2 °F 68% 30.15 in 10.0 mi South 5.8 mph - N/A   Overcast
10:36 PM 58.6 °F 48.2 °F 68% 30.15 in 10.0 mi South 5.8 mph - N/A   Overcast
10:55 PM 58.5 °F 48.2 °F 69% 30.15 in 10.0 mi SSE 5.8 mph - N/A   Overcast
10:56 PM 58.5 °F 48.2 °F 69% 30.15 in 10.0 mi SSE 5.8 mph - N/A   Overcast
11:18 PM 58.3 °F 48.7 °F 71% 30.14 in 10.0 mi South 10.4 mph 16.1 mph N/A   Overcast
11:37 PM 57.4 °F 49.1 °F 74% 30.13 in 10.0 mi South 8.1 mph - N/A   Overcast
11:56 PM 57.2 °F 49.6 °F 76% 30.13 in 10.0 mi South 4.6 mph - N/A   Overcast